NUSAT-2 (BATATA)

Last updated on Wed Oct 04 2023 01:02:24 GMT+0100 (British Summer Time)

1 41558U 16033C 23275.97303757 .03780205 24766-5 11396-2 0 9993 2 41558 97.4127 39.8680 0010014 278.6527 81.3631 16.26864701410976
UTC large
Height (km)
Speed (km/s)
/
Latitude / Longitude
Inclination (degrees)
Orbital Period (minutes)
Azimuth
Elevation
Range (km)
Doppler Factor

Next 0 passes for location: London (51.5072 / 0.1276)

Sorry there are no passes over London.